Regional Weather Roundup
Issued by NWS

Home | Current Version | Previous Version | Text Only | Print | Product List | Glossary Off
Versions: 1 2 3 4 5 6 7 8 9 10 11 12 13 14 15 16 17 18 19 20 21 22 23 24 25 26 27 28 29 30 31 32 33 34 35 36 37 38 39 40 41 42 43 44 45 46 47 48 49 50

000
ASUS45 KCYS 270910
RWRWY

WYOMING REGIONAL WEATHER ROUNDUP
NATIONAL WEATHER SERVICE CHEYENNE WY
300 AM MDT MON JUL 27 2015

NOTE:  "FAIR" INDICATES FEW OR NO CLOUDS BELOW 12,000 FEET
WITH NO SIGNIFICANT WEATHER AND/OR OBSTRUCTIONS TO VISIBILITY.

WYZ001-271000-
YELLOWSTONE NATIONAL PARK

CITY           SKY/WX    TMP DP  RH WIND       PRES   REMARKS
LK YELLOWSTONE   N/A     42  38  85 CALM      30.04F
W YELLOWSTONE  NOT AVBL

$$
WYZ002>013-054>058-071-098>099-271000-
NORTHERN WYOMING

CITY           SKY/WX    TMP DP  RH WIND       PRES   REMARKS
JACKSON        FAIR      50  43  76 N5        29.95F
CODY           FAIR      59  39  47 N10       29.86R
GREYBULL       FAIR      64  41  42 E3        29.74S
WORLAND        FAIR      64  36  35 SW6       29.77S
SHERIDAN       FAIR      55  47  74 NE5       29.76F
BUFFALO        FAIR      63  40  42 W6        29.82F
GILLETTE       FAIR      69  53  56 S18       29.79F
HULETT         FAIR      64  55  72 E7        29.85F
NEWCASTLE      FAIR      70  50  49 E16G26    29.88F

$$
WYZ014>020-022>026-101>103-271000-
CENTRAL WYOMING

CITY           SKY/WX    TMP DP  RH WIND       PRES   REMARKS
BIG PINEY      FAIR      44  28  53 CALM      30.02F
PINEDALE       FAIR      43  36  75 NW5       30.03F
DUBOIS         FAIR      46  28  49 NW10      30.01F
LANDER         FAIR      73  27  18 SW13      29.86F
RIVERTON       FAIR      69  26  20 S5        29.88F
CASPER         FAIR      75  31  19 SW15G21   29.88F
DOUGLAS        FAIR      67  53  61 SE13      29.89F

$$
WYZ021-027>030-104>119-271000-
SOUTHERN WYOMING

CITY           SKY/WX    TMP DP  RH WIND       PRES   REMARKS
EVANSTON       FAIR      60  29  30 S10       30.02F
KEMMERER       FAIR      52  32  46 CALM      30.03S
FORT BRIDGER   SUNNY     64  32  29 SW13      30.04S
ROCK SPRINGS   FAIR      69  40  34 S8G17     30.01F
DIXON          FAIR      63  40  43 NE7       30.09S
RAWLINS        FAIR      68  39  34 SW7       30.05F
SARATOGA       FAIR      64  36  34 SE10      30.10S
LARAMIE        FAIR      53  50  89 VRB3      30.10F
CHEYENNE       FAIR      57  53  86 S5        30.04F
TORRINGTON     FAIR      62  58  86 E9        29.93F
PINE BLUFFS    FAIR      55  54  94 SW6       30.00F

$$



USA.gov is the U.S. government's official web portal to all federal, state and local government web resources and services.